Imperial, NE

8:01 PM MDT on August 23, 2017 (GMT -0600)
Imperial Municipal

Weather History for KIML - March, 2013

Change the Weather History Date:

Saturday, March 23, 2013

  Actual Average Record
Temperature  
Mean Temperature 25 °F 42 °F  
Max Temperature 31 °F 56 °F 85 °F (1910)
Min Temperature 18 °F 27 °F 2 °F (1965)
Degree Days  
Heating Degree Days 40 23  
Month to date heating degree days 607 603  
Cooling Degree Days 0 0  
Month to date cooling degree days 0 0  
Year to date cooling degree days 0 0  
Moisture  
Dew Point 23 °F    
Average Humidity 87    
Maximum Humidity 100    
Minimum Humidity 73    
Precipitation  
Precipitation 0.19 in 0.04 in 1.50 in (1902)
Sea Level Pressure  
Sea Level Pressure 30.03 in    
Wind  
Wind Speed 18 mph (NNE)    
Max Wind Speed 30 mph    
Max Gust Speed 37 mph    
Visibility 2 miles    
Events Fog , Snow    
T = Trace of Precipitation, MM = Missing Value Source: NWS Daily Summary

Daily Weather History Graph

Daily Weather History Graph

Search for Another Location

Airport or City:

Trip Planner

Search our weather history database for the weather conditions in past years. The results will help you decide how hot, cold, wet, or windy it might be!

Date:

Astronomy

Mar. 23, 2013 Rise Set
Actual Time 6:44 AM MDT 7:02 PM MDT
Civil Twilight 6:17 AM MDT 7:29 PM MDT
Nautical Twilight 5:45 AM MDT 8:01 PM MDT
Astronomical Twilight 5:12 AM MDT 8:34 PM MDT
Moon 3:30 PM MDT (3/23) 4:22 AM MDT (3/23)
Length of Visible Light 13h 12m
Length of Day
12h 17m
Waxing Gibbous, 85% of the Moon is Illuminated
Mar 23
Waxing Gibbous
Mar 27
Full
Apr 2
Last Quarter
Apr 10
New
Apr 18
First Quarter

Hourly Weather History & Observations

Time (MDT) Temp. Windchill Dew Point Humidity Pressure Visibility Wind Dir Wind Speed Gust Speed Precip Events Conditions
12:53 AM 32.0 °F 25.6 °F 30.9 °F 96% 29.95 in 0.8 mi ENE 6.9 mph - 0.07 in Snow Light Snow
1:19 AM 30.2 °F 25.4 °F 30.2 °F 100% 29.91 in 1.0 mi East 4.6 mph - 0.02 in Snow Light Snow
1:33 AM 30.2 °F 24.3 °F 30.2 °F 100% 29.91 in 1.0 mi ESE 5.8 mph - 0.03 in Snow Light Snow
1:45 AM 30.2 °F 22.6 °F 30.2 °F 100% 29.91 in 1.2 mi ESE 8.1 mph - 0.03 in Snow Light Snow
1:53 AM 30.9 °F 23.5 °F 30.0 °F 96% 29.94 in 1.2 mi ESE 8.1 mph - 0.04 in Snow Light Snow
2:05 AM 30.2 °F 23.4 °F 30.2 °F 100% 29.91 in 1.0 mi SE 6.9 mph - 0.00 in Snow Light Snow
2:17 AM 30.2 °F 23.4 °F 30.2 °F 100% 29.91 in 1.0 mi SE 6.9 mph - 0.01 in Snow Light Snow
2:29 AM 30.2 °F 24.3 °F 30.2 °F 100% 29.91 in 1.0 mi SE 5.8 mph - 0.01 in Snow Light Snow
2:53 AM 30.9 °F 27.5 °F 30.0 °F 96% 29.96 in - SE 3.5 mph - 0.02 in Snow Light Snow
3:00 AM 30.2 °F 26.7 °F 30.2 °F 100% 29.91 in 1.2 mi SE 3.5 mph - 0.00 in Snow Light Snow
3:25 AM 30.2 °F - 30.2 °F 100% 29.91 in 1.0 mi Calm Calm - 0.02 in Snow Light Snow
3:37 AM 30.2 °F 25.4 °F 28.4 °F 93% 29.91 in 1.0 mi ENE 4.6 mph - 0.02 in Snow Light Snow
3:44 AM 30.2 °F 22.6 °F 28.4 °F 93% 29.91 in 0.8 mi NE 8.1 mph - 0.03 in Snow Light Snow
3:53 AM 30.9 °F 22.8 °F 28.9 °F 92% 29.95 in 0.8 mi NE 9.2 mph - 0.04 in Snow Light Snow
4:23 AM 30.2 °F 19.8 °F 28.4 °F 93% 29.91 in 0.8 mi ENE 13.8 mph - 0.02 in Snow Light Snow
4:33 AM 28.4 °F 17.5 °F 28.4 °F 100% 29.90 in 0.8 mi ENE 13.8 mph - N/A Snow Light Snow
4:41 AM 28.4 °F 17.5 °F 28.4 °F 100% 29.91 in 1.0 mi ENE 13.8 mph - 0.02 in Snow Light Snow
4:48 AM 28.4 °F 18.0 °F 28.4 °F 100% 29.91 in 1.2 mi ENE 12.7 mph - 0.02 in Snow Light Snow
4:53 AM 28.9 °F 19.2 °F 28.0 °F 96% 29.96 in 1.2 mi ENE 11.5 mph - 0.02 in Snow Light Snow
5:30 AM 28.4 °F 18.0 °F 28.4 °F 100% 29.91 in 1.5 mi NE 12.7 mph - 0.01 in Snow Light Snow
5:53 AM 28.9 °F 17.3 °F 27.0 °F 92% 29.98 in 1.2 mi NE 16.1 mph - 0.01 in Snow Light Snow
6:08 AM 28.4 °F 15.8 °F 26.6 °F 93% 29.93 in 1.2 mi ENE 18.4 mph - 0.00 in Snow Light Snow
6:25 AM 26.6 °F 14.3 °F 24.8 °F 93% 29.95 in 1.2 mi NE 16.1 mph - 0.01 in Snow Light Snow
6:53 AM 27.0 °F 13.9 °F 24.1 °F 89% 30.02 in 1.2 mi NNE 18.4 mph - 0.01 in Snow Light Snow
7:05 AM 26.6 °F 14.3 °F 24.8 °F 93% 29.96 in 0.8 mi NNE 16.1 mph 25.3 mph 0.00 in Snow Light Snow
7:28 AM 26.6 °F 13.4 °F 24.8 °F 93% 29.97 in 0.5 mi NE 18.4 mph - 0.00 in Fog , Snow Light Snow
7:53 AM 26.1 °F 12.3 °F 24.1 °F 92% 30.04 in 0.5 mi NE 19.6 mph - 0.01 in Fog , Snow Light Snow
8:40 AM 26.6 °F 13.8 °F 24.8 °F 93% 29.98 in 0.8 mi NE 17.3 mph - 0.01 in Snow Light Snow
8:53 AM 26.1 °F 12.0 °F 24.1 °F 92% 30.06 in 0.8 mi NE 20.7 mph 29.9 mph 0.01 in Snow Light Snow
9:26 AM 26.6 °F 14.3 °F 24.8 °F 93% 29.99 in 0.5 mi NE 16.1 mph - 0.01 in Fog , Snow Snow
9:53 AM 24.1 °F 8.0 °F 21.0 °F 88% 30.09 in 0.5 mi North 25.3 mph - 0.01 in Fog , Snow Light Snow
10:06 AM 24.8 °F 9.3 °F 21.2 °F 86% 30.00 in 1.0 mi NNE 24.2 mph 31.1 mph 0.00 in Snow Light Snow
10:18 AM 24.8 °F 9.6 °F 19.4 °F 80% 30.01 in 0.8 mi NNE 23.0 mph - 0.00 in Snow Light Snow
10:51 AM 23.0 °F 5.7 °F 19.4 °F 86% 30.01 in 0.5 mi North 28.8 mph 35.7 mph 0.00 in Fog , Snow Light Snow
10:53 AM 23.0 °F 6.3 °F 19.0 °F 85% 30.11 in 0.5 mi North 26.5 mph 35.7 mph 0.00 in Fog , Snow Light Snow
11:00 AM 23.0 °F 6.0 °F 19.4 °F 86% 30.01 in 0.8 mi NNE 27.6 mph 35.7 mph 0.00 in Snow Light Snow
11:53 AM 23.0 °F 6.6 °F 19.0 °F 85% 30.12 in 0.5 mi North 25.3 mph 33.4 mph 0.01 in Fog , Snow Light Snow
12:16 PM 23.0 °F 6.0 °F 19.4 °F 86% 30.03 in 1.0 mi North 27.6 mph 32.2 mph 0.00 in Snow Light Snow
12:24 PM 23.0 °F 6.3 °F 19.4 °F 86% 30.03 in 0.8 mi North 26.5 mph - 0.00 in Snow Light Snow
12:42 PM 24.8 °F 9.6 °F 19.4 °F 80% 30.03 in 0.5 mi North 23.0 mph 28.8 mph 0.00 in Fog , Snow Snow
12:53 PM 23.0 °F 7.6 °F 19.9 °F 88% 30.13 in 0.5 mi North 21.9 mph 29.9 mph 0.00 in Fog , Snow Light Snow
1:01 PM 24.8 °F 9.3 °F 19.4 °F 80% 30.04 in 0.5 mi North 24.2 mph - 0.00 in Fog , Snow Light Snow
1:53 PM 24.1 °F 9.0 °F 19.9 °F 84% 30.14 in 0.5 mi North 21.9 mph - 0.01 in Fog , Snow Snow
2:53 PM 24.1 °F 8.3 °F 19.9 °F 84% 30.14 in 0.8 mi North 24.2 mph - 0.01 in Snow Light Snow
3:01 PM 24.8 °F 8.7 °F 19.4 °F 80% 30.05 in 0.8 mi North 26.5 mph 32.2 mph 0.00 in Snow Light Snow
3:10 PM 24.8 °F 9.0 °F 19.4 °F 80% 30.05 in 1.2 mi North 25.3 mph - 0.00 in Snow Light Snow
3:35 PM 24.8 °F 9.6 °F 19.4 °F 80% 30.06 in 0.8 mi North 23.0 mph 31.1 mph 0.00 in Snow Light Snow
3:53 PM 24.1 °F 8.7 °F 19.9 °F 84% 30.16 in 1.0 mi North 23.0 mph - 0.00 in Snow Light Snow
4:05 PM 24.8 °F 10.0 °F 19.4 °F 80% 30.06 in 1.0 mi North 21.9 mph - 0.00 in Snow Light Snow
4:26 PM 24.8 °F 9.3 °F 21.2 °F 86% 30.07 in 0.8 mi North 24.2 mph - 0.00 in Snow Light Snow
4:41 PM 24.8 °F 10.0 °F 19.4 °F 80% 30.07 in 0.8 mi North 21.9 mph - 0.00 in Snow Light Snow
4:53 PM 24.1 °F 9.4 °F 19.9 °F 84% 30.18 in 1.0 mi North 20.7 mph - 0.00 in Snow Light Snow
5:21 PM 24.8 °F 10.7 °F 19.4 °F 80% 30.08 in 1.8 mi North 19.6 mph - 0.00 in Snow Light Snow
5:34 PM 24.8 °F 10.0 °F 19.4 °F 80% 30.08 in 2.0 mi North 21.9 mph - 0.00 in Snow Light Snow
5:53 PM 24.1 °F 9.4 °F 19.0 °F 81% 30.18 in 3.0 mi North 20.7 mph - 0.00 in Snow Light Snow
6:53 PM 24.1 °F 9.8 °F 18.0 °F 77% 30.20 in 10.0 mi North 19.6 mph - 0.00 in   Overcast
7:23 PM 24.8 °F 10.7 °F 17.6 °F 74% 30.10 in 10.0 mi North 19.6 mph 27.6 mph N/A   Overcast
7:38 PM 23.0 °F 8.0 °F 15.8 °F 74% 30.10 in 10.0 mi North 20.7 mph - N/A   Overcast
7:53 PM 23.0 °F 8.3 °F 15.1 °F 72% 30.22 in 10.0 mi North 19.6 mph - N/A   Overcast
8:53 PM 21.9 °F 8.2 °F 15.1 °F 75% 30.25 in 10.0 mi North 16.1 mph - N/A   Scattered Clouds
9:53 PM 19.0 °F 8.2 °F 12.9 °F 77% 30.27 in 10.0 mi NNW 9.2 mph - N/A   Partly Cloudy
10:53 PM 18.0 °F 4.2 °F 12.0 °F 78% 30.28 in 10.0 mi NNW 13.8 mph - N/A   Partly Cloudy
11:53 PM 19.0 °F 5.0 °F 12.0 °F 74% 30.28 in 10.0 mi NNW 15.0 mph - N/A   Clear